KT2UU-13 Weather Reports


Display with metric or nautical units.
time (UTC)temp
F
wind
direction
speed
MPH
gust
MPH
rain 1hr
in
rain 24hr
in
rain mn
in
humidity
%
barometer
mb
20260904005427 82 213 0.0 0.0 0.00 0.00 0.00 91 1016.9
20260904004921 82 213 0.0 0.0 0.00 0.00 0.00 91 1016.6
20260904004418 82 213 0.0 0.0 0.00 0.00 0.00 91 1016.7
20260904003913 82 213 0.0 0.0 0.00 0.00 0.00 91 1016.7
20260904003409 83 213 0.0 0.0 0.00 0.00 0.00 90 1016.7
20260904002903 83 213 0.0 0.0 0.00 0.00 0.00 89 1016.2
20260904002401 83 215 0.0 0.0 0.00 0.00 0.00 88 1016.3
20260904001859 83 213 0.0 0.0 0.00 0.00 0.00 88 1016.4
20260904001355 84 213 0.0 0.0 0.00 0.00 0.00 86 1016.4
20260904000849 85 215 0.0 0.0 0.00 0.00 0.00 87 1016.2
20260904000348 85 213 0.0 0.0 0.00 0.00 0.00 86 1016.2
20260903235843 85 213 0.0 0.0 0.00 0.00 0.00 84 1016.2
20260903235339 85 213 0.0 0.0 0.00 0.00 0.00 84 1016.0
20260903234838 86 213 0.0 0.0 0.00 0.00 0.00 84 1016.2
20260903234335 87 213 0.0 0.0 0.00 0.00 0.00 84 1016.2
20260903233831 87 215 0.0 0.0 0.00 0.00 0.00 84 1016.3
20260903233327 87 211 0.0 0.0 0.00 0.00 0.00 83 1016.2
20260903232826 88 215 0.0 0.0 0.00 0.00 0.00 80 1016.2
20260903232322 88 211 0.0 0.0 0.00 0.00 0.00 78 1016.1
20260903231820 88 211 0.0 0.0 0.00 0.00 0.00 77 1016.0
20260903231316 88 215 0.0 0.0 0.00 0.00 0.00 77 1015.9
20260903230811 88 215 0.0 0.0 0.00 0.00 0.00 78 1015.8
20260903230307 88 215 0.0 0.0 0.00 0.00 0.00 78 1015.9
20260903225803 89 215 0.0 0.0 0.00 0.00 0.00 78 1016.0
20260903225259 90 210 0.0 0.0 0.00 0.00 0.00 76 1016.2
20260903224755 91 210 0.0 0.0 0.00 0.00 0.00 74 1016.0
20260903224250 93 212 0.0 0.0 0.00 0.00 0.00 71 1016.0
20260903223746 94 214 0.0 0.0 0.00 0.00 0.00 69 1015.9
20260903223244 94 219 0.0 0.0 0.00 0.00 0.00 65 1016.1
20260903222739 92 219 0.0 0.0 0.00 0.00 0.00 68 1016.1
20260903222238 91 218 0.0 0.0 0.00 0.00 0.00 69 1016.2
20260903221733 91 212 0.0 0.0 0.00 0.00 0.00 67 1016.0
20260903221232 92 212 0.0 0.0 0.00 0.00 0.00 66 1016.2
20260903220730 93 214 0.0 0.0 0.00 0.00 0.00 62 1016.1
20260903220226 93 218 0.0 0.0 0.00 0.00 0.00 60 1016.0
20260903215724 94 218 0.0 0.0 0.00 0.00 0.00 59 1016.2
20260903215220 94 214 0.0 0.0 0.00 0.00 0.00 57 1016.1
20260903214718 95 218 0.0 0.0 0.00 0.00 0.00 56 1016.0
20260903214215 95 218 0.0 0.0 0.00 0.00 0.00 54 1016.0
20260903213709 97 219 0.0 0.0 0.00 0.00 0.00 54 1016.0
20260903213205 98 232 2.0 2.0 0.00 0.00 0.00 51 1016.1
20260903212700 97 224 2.0 3.0 0.00 0.00 0.00 53 1016.2
20260903212156 97 232 2.0 4.0 0.00 0.00 0.00 53 1016.4
20260903211650 97 219 0.0 3.0 0.00 0.00 0.00 53 1016.3
20260903211147 97 217 4.0 4.0 0.00 0.00 0.00 52 1016.3
20260903210642 98 217 1.0 2.0 0.00 0.00 0.00 52 1016.2
20260903210137 97 216 1.0 2.0 0.00 0.00 0.00 50 1016.3
20260903205637 96 217 2.0 3.0 0.00 0.00 0.00 53 1016.2
20260903205136 96 219 4.0 6.0 0.00 0.00 0.00 53 1016.2
20260903204632 97 216 3.0 4.0 0.00 0.00 0.00 52 1016.5
20260903204128 96 217 3.0 3.0 0.00 0.00 0.00 53 1016.4
20260903203623 97 224 2.0 3.0 0.00 0.00 0.00 55 1016.6
20260903203118 96 222 0.0 0.0 0.00 0.00 0.00 56 1016.6
20260903202613 95 231 2.0 3.0 0.00 0.00 0.00 55 1016.7
20260903202109 94 230 3.0 4.0 0.00 0.00 0.00 55 1016.7
20260903201603 93 217 2.0 4.0 0.00 0.00 0.00 59 1016.8
20260903201102 93 229 3.0 4.0 0.00 0.00 0.00 60 1016.9
20260903200557 92 223 1.0 2.0 0.00 0.00 0.00 63 1016.9
20260903200052 94 217 2.0 3.0 0.00 0.00 0.00 61 1017.1
20260903195548 92 212 0.0 0.0 0.00 0.00 0.00 65 1017.1
20260903195043 89 217 0.0 0.0 0.00 0.00 0.00 72 1017.1
20260903194534 87 211 0.0 0.0 0.00 0.00 0.00 73 1017.3
20260903194028 89 210 0.0 0.0 0.00 0.00 0.00 69 1017.5
20260903193525 89 210 0.0 0.0 0.00 0.00 0.00 69 1017.5
20260903193020 93 212 0.0 0.0 0.00 0.00 0.00 62 1017.4
20260903192516 94 209 0.0 0.0 0.00 0.00 0.00 59 1017.2
20260903192010 94 209 0.0 0.0 0.00 0.00 0.00 56 1017.4
20260903191506 95 209 0.0 1.0 0.00 0.00 0.00 54 1017.3
20260903190819 94 215 0.0 0.0 0.00 0.00 0.00 55 1017.4
20260903190315 94 215 0.0 0.0 0.00 0.00 0.00 55 1017.4
20260903185814 95 209 0.0 2.0 0.00 0.00 0.00 56 1017.5
20260903185309 95 214 1.0 4.0 0.00 0.00 0.00 54 1017.4
20260903184805 96 214 0.0 0.0 0.00 0.00 0.00 54 1017.4
20260903184302 95 220 0.0 2.0 0.00 0.00 0.00 53 1017.6
20260903183756 95 223 2.0 2.0 0.00 0.00 0.00 52 1017.7
20260903183250 95 214 1.0 3.0 0.00 0.00 0.00 54 1017.6
20260903182749 95 223 3.0 4.0 0.00 0.00 0.00 53 1017.5
20260903182244 96 221 2.0 2.0 0.00 0.00 0.00 54 1017.7
20260903181743 95 218 3.0 3.0 0.00 0.00 0.00 55 1017.9
20260903181238 95 218 1.0 3.0 0.00 0.00 0.00 55 1017.9
20260903180734 96 214 0.0 2.0 0.00 0.00 0.00 54 1017.8
20260903180232 96 214 1.0 1.0 0.00 0.00 0.00 53 1018.0
20260903175727 95 209 1.0 2.0 0.00 0.00 0.00 57 1018.0
20260903175226 96 215 1.0 3.0 0.00 0.00 0.00 57 1018.1
20260903174725 95 219 1.0 2.0 0.00 0.00 0.00 56 1018.1
20260903174221 94 220 0.0 3.0 0.00 0.00 0.00 57 1018.2
20260903173716 94 211 1.0 6.0 0.00 0.00 0.00 59 1018.2
20260903173211 94 214 0.0 0.0 0.00 0.00 0.00 58 1018.3
20260903172706 95 218 0.0 6.0 0.00 0.00 0.00 57 1018.3
20260903172201 94 209 1.0 4.0 0.00 0.00 0.00 59 1018.7
20260903171656 94 212 0.0 0.0 0.00 0.00 0.00 60 1018.7
20260903171152 93 212 0.0 0.0 0.00 0.00 0.00 62 1018.7
20260903170651 92 218 1.0 3.0 0.00 0.00 0.00 62 1018.7
20260903170147 94 211 0.0 0.0 0.00 0.00 0.00 62 1018.8
20260903165644 93 216 3.0 4.0 0.00 0.00 0.00 64 1018.9
20260903165139 93 212 0.0 2.0 0.00 0.00 0.00 63 1018.6
20260903164634 92 212 0.0 1.0 0.00 0.00 0.00 62 1019.2
20260903164130 92 213 0.0 3.0 0.00 0.00 0.00 64 1019.0
20260903163624 91 210 0.0 4.0 0.00 0.00 0.00 65 1019.1
20260903163121 92 210 0.0 2.0 0.00 0.00 0.00 64 1019.0
20260903162617 92 220 0.0 2.0 0.00 0.00 0.00 64 1019.4
20260903162113 92 215 0.0 1.0 0.00 0.00 0.00 63 1019.3
20260903161613 92 214 1.0 2.0 0.00 0.00 0.00 64 1019.3
20260903161109 92 217 1.0 2.0 0.00 0.00 0.00 64 1019.4
20260903160603 92 215 0.0 0.0 0.00 0.00 0.00 66 1019.3
20260903160057 90 213 1.0 2.0 0.00 0.00 0.00 65 1019.3
20260903155556 91 215 0.0 0.0 0.00 0.00 0.00 66 1019.3
20260903155051 92 204 1.0 2.0 0.00 0.00 0.00 64 1019.3
20260903154548 90 217 0.0 1.0 0.00 0.00 0.00 69 1019.3
20260903154044 90 215 0.0 2.0 0.00 0.00 0.00 66 1019.3
20260903153539 90 213 0.0 1.0 0.00 0.00 0.00 68 1019.4
20260903153035 89 215 0.0 1.0 0.00 0.00 0.00 67 1019.0
20260903152530 89 210 0.0 1.0 0.00 0.00 0.00 70 1019.3
20260903152026 89 215 0.0 2.0 0.00 0.00 0.00 70 1019.0
20260903151525 89 213 1.0 1.0 0.00 0.00 0.00 71 1019.5
20260903151021 89 205 0.0 1.0 0.00 0.00 0.00 69 1019.3
20260903150515 90 204 0.0 0.0 0.00 0.00 0.00 70 1019.2
20260903150010 89 204 0.0 0.0 0.00 0.00 0.00 70 1019.3
20260903145505 88 204 0.0 0.0 0.00 0.00 0.00 73 1019.3
20260903145000 87 213 0.0 0.0 0.00 0.00 0.00 72 1019.2
20260903144459 87 215 0.0 0.0 0.00 0.00 0.00 72 1019.2
20260903143955 87 216 0.0 0.0 0.00 0.00 0.00 73 1019.4
20260903143451 86 205 0.0 0.0 0.00 0.00 0.00 75 1019.4
20260903142947 86 205 0.0 3.0 0.00 0.00 0.00 75 1019.3
20260903142442 86 205 0.0 1.0 0.00 0.00 0.00 77 1019.5
20260903141938 86 213 0.0 0.0 0.00 0.00 0.00 76 1019.4
20260903141434 86 213 0.0 0.0 0.00 0.00 0.00 77 1019.5
20260903140929 85 210 0.0 0.0 0.00 0.00 0.00 79 1019.5
20260903140425 85 215 0.0 0.0 0.00 0.00 0.00 78 1019.3
20260903135925 84 213 0.0 0.0 0.00 0.00 0.00 79 1019.5
20260903135420 84 213 0.0 0.0 0.00 0.00 0.00 80 1019.5
20260903134915 83 213 0.0 0.0 0.00 0.00 0.00 81 1019.7
20260903134414 83 206 0.0 0.0 0.00 0.00 0.00 83 1019.9
20260903133912 82 206 0.0 0.0 0.00 0.00 0.00 84 1019.7
20260903133408 82 215 0.0 0.0 0.00 0.00 0.00 84 1019.6
20260903132903 81 216 0.0 0.0 0.00 0.00 0.00 84 1019.5
20260903132359 80 215 0.0 1.0 0.00 0.00 0.00 86 1019.8
20260903131858 80 216 0.0 0.0 0.00 0.00 0.00 86 1019.8
20260903131353 80 207 0.0 1.0 0.00 0.00 0.00 86 1019.6
20260903130852 80 215 0.0 0.0 0.00 0.00 0.00 87 1019.6
20260903130347 80 215 0.0 1.0 0.00 0.00 0.00 87 1019.5
20260903125846 82 215 0.0 2.0 0.00 0.00 0.00 85 1019.7
20260903125341 82 216 0.0 0.0 0.00 0.00 0.00 85 1019.7
20260903124840 82 215 0.0 0.0 0.00 0.00 0.00 85 1019.8
20260903124336 81 213 0.0 0.0 0.00 0.00 0.00 86 1019.6
20260903123835 80 215 0.0 0.0 0.00 0.00 0.00 89 1019.7
20260903123329 80 216 0.0 0.0 0.00 0.00 0.00 89 1019.7
20260903122828 78 215 0.0 0.0 0.00 0.00 0.00 92 1019.8
20260903122323 76 207 0.0 0.0 0.00 0.00 0.00 97 1019.8
20260903121822 75 207 0.0 0.0 0.00 0.00 0.00 98 1019.6
20260903121317 75 207 0.0 0.0 0.00 0.00 0.00 99 1019.8
20260903120813 74 207 0.0 0.0 0.00 0.00 0.00 99 1019.7
20260903120306 74 207 0.0 0.0 0.00 0.00 0.00 99 1019.7
20260903115804 74 216 0.0 0.0 0.00 0.00 0.00 99 1019.6
20260903115300 73 216 0.0 0.0 0.00 0.00 0.00 99 1019.3
20260903114800 73 216 0.0 0.0 0.00 0.00 0.00 99 1019.5
20260903114255 72 208 0.0 0.0 0.00 0.00 0.00 99 1019.4
20260903113750 72 216 0.0 0.0 0.00 0.00 0.00 99 1019.6
20260903113246 72 216 0.0 0.0 0.00 0.00 0.00 99 1019.6
20260903112742 72 216 0.0 0.0 0.00 0.00 0.00 99 1019.3
20260903112238 72 216 0.0 0.0 0.00 0.00 0.00 99 1019.2
20260903111736 72 216 0.0 0.0 0.00 0.00 0.00 99 1019.1
20260903111232 72 206 0.0 0.0 0.00 0.00 0.00 99 1018.9
20260903110727 72 216 0.0 0.0 0.00 0.00 0.00 99 1019.0
20260903110223 72 216 0.0 0.0 0.00 0.00 0.00 99 1019.0
20260903105723 72 216 0.0 0.0 0.00 0.00 0.00 99 1018.9
20260903105218 72 216 0.0 0.0 0.00 0.00 0.00 99 1018.9
20260903104718 72 206 0.0 0.0 0.00 0.00 0.00 99 1018.9
20260903104213 72 216 0.0 0.0 0.00 0.00 0.00 99 1018.9
20260903103708 72 216 0.0 0.0 0.00 0.00 0.00 99 1018.7
20260903103204 73 216 0.0 0.0 0.00 0.00 0.00 99 1018.7
20260903102700 73 216 0.0 0.0 0.00 0.00 0.00 99 1019.0
20260903102154 73 216 0.0 0.0 0.00 0.00 0.00 99 1018.8
20260903101653 73 216 0.0 0.0 0.00 0.00 0.00 99 1019.0
20260903101149 73 216 0.0 0.0 0.00 0.00 0.00 99 1018.7
20260903100644 73 216 0.0 0.0 0.00 0.00 0.00 99 1018.6
20260903100143 73 216 0.0 0.0 0.00 0.00 0.00 99 1018.6
20260903095641 73 216 0.0 0.0 0.00 0.00 0.00 99 1018.6
20260903095141 73 208 0.0 0.0 0.00 0.00 0.00 99 1018.6
20260903094636 73 216 0.0 0.0 0.00 0.00 0.00 99 1018.7
20260903094131 73 216 0.0 0.0 0.00 0.00 0.00 99 1018.5
20260903093626 73 208 0.0 0.0 0.00 0.00 0.00 99 1018.7
20260903093121 73 208 0.0 0.0 0.00 0.00 0.00 99 1018.8
20260903092621 73 208 0.0 0.0 0.00 0.00 0.00 99 1018.8
20260903091614 73 216 0.0 0.0 0.00 0.00 0.00 99 1018.9
20260903091109 73 216 0.0 0.0 0.00 0.00 0.00 99 1018.9
20260903090605 73 216 0.0 0.0 0.00 0.00 0.00 99 1018.7
20260903090103 74 215 0.0 0.0 0.00 0.00 0.00 99 1018.7
20260903085602 74 215 0.0 0.0 0.00 0.00 0.00 99 1018.5
20260903085058 74 215 0.0 0.0 0.00 0.00 0.00 99 1018.6
20260903084555 74 216 0.0 0.0 0.00 0.00 0.00 99 1018.6
20260903084051 74 216 0.0 0.0 0.00 0.00 0.00 99 1018.6
20260903083547 74 215 0.0 0.0 0.00 0.00 0.00 99 1018.8
20260903083046 74 216 0.0 0.0 0.00 0.00 0.00 99 1018.8
20260903082540 74 215 0.0 0.0 0.00 0.00 0.00 99 1018.6
20260903082036 74 216 0.0 0.0 0.00 0.00 0.00 99 1018.7
20260903081531 74 215 0.0 0.0 0.00 0.00 0.00 99 1018.6
20260903081027 74 208 0.0 0.0 0.00 0.00 0.00 99 1018.7
20260903080523 74 208 0.0 0.0 0.00 0.00 0.00 99 1018.4
20260903080020 74 208 0.0 0.0 0.00 0.00 0.00 99 1018.5
20260903075514 74 208 0.0 0.0 0.00 0.00 0.00 99 1018.4
20260903075009 74 208 0.0 0.0 0.00 0.00 0.00 99 1018.4
20260903074509 74 208 0.0 0.0 0.00 0.00 0.00 99 1018.3
20260903074003 74 208 0.0 0.0 0.00 0.00 0.00 99 1018.2
20260903073459 74 208 0.0 0.0 0.00 0.00 0.00 99 1018.5
20260903072954 74 208 0.0 0.0 0.00 0.00 0.00 99 1018.1
20260903072450 74 213 0.0 0.0 0.00 0.00 0.00 99 1018.4
20260903071947 74 213 0.0 0.0 0.00 0.00 0.00 99 1018.1
20260903071442 74 208 0.0 0.0 0.00 0.00 0.00 99 1018.3
20260903070938 74 213 0.0 0.0 0.00 0.00 0.00 99 1018.3
20260903070432 74 208 0.0 0.0 0.00 0.00 0.00 99 1018.3
20260903065927 74 213 0.0 0.0 0.00 0.00 0.00 99 1018.1
20260903065427 74 216 0.0 0.0 0.00 0.00 0.00 99 1018.3
20260903064926 74 216 0.0 0.0 0.00 0.00 0.00 99 1018.1
20260903064421 74 216 0.0 0.0 0.00 0.00 0.00 99 1018.1
20260903063917 75 216 0.0 0.0 0.00 0.00 0.00 99 1018.2
20260903063412 75 216 0.0 0.0 0.00 0.00 0.00 99 1018.1
20260903062907 75 216 0.0 0.0 0.00 0.00 0.00 98 1018.2
20260903062402 75 216 0.0 0.0 0.00 0.00 0.00 98 1018.3
20260903061858 75 216 0.0 0.0 0.00 0.00 0.00 98 1018.2
20260903061357 75 216 0.0 0.0 0.00 0.00 0.00 98 1018.3
20260903060853 75 216 0.0 0.0 0.00 0.00 0.00 97 1018.4
20260903060353 75 216 0.0 0.0 0.00 0.00 0.00 97 1018.5
20260903055850 75 216 0.0 0.0 0.00 0.00 0.00 97 1018.4
20260903055348 75 216 0.0 0.0 0.00 0.00 0.00 97 1018.5
20260903054844 75 216 0.0 0.0 0.00 0.00 0.00 97 1018.6
20260903054338 75 216 0.0 0.0 0.00 0.00 0.00 97 1018.5
20260903053835 75 208 0.0 0.0 0.00 0.00 0.00 97 1018.5
20260903053330 75 208 0.0 0.0 0.00 0.00 0.00 97 1018.4
20260903052825 76 213 0.0 0.0 0.00 0.00 0.00 96 1018.6
20260903052321 76 213 0.0 0.0 0.00 0.00 0.00 96 1018.5
20260903051816 76 215 0.0 0.0 0.00 0.00 0.00 96 1018.4
20260903051312 76 215 0.0 0.0 0.00 0.00 0.00 96 1018.5
20260903050807 76 215 0.0 0.0 0.00 0.00 0.00 96 1018.6
20260903050306 76 215 0.0 0.0 0.00 0.00 0.00 96 1018.3
20260903045801 76 215 0.0 0.0 0.00 0.00 0.00 95 1018.4
20260903045257 76 215 0.0 0.0 0.00 0.00 0.00 95 1018.5
20260903044753 76 215 0.0 0.0 0.00 0.00 0.00 95 1018.4
20260903044248 77 215 0.0 0.0 0.00 0.00 0.00 94 1018.2
20260903043745 77 215 0.0 0.0 0.00 0.00 0.00 94 1018.2
20260903043244 77 215 0.0 0.0 0.00 0.00 0.00 93 1018.2
20260903042743 77 215 0.0 0.0 0.00 0.00 0.00 93 1018.2
20260903042239 77 216 0.0 0.0 0.00 0.00 0.00 92 1018.1
20260903041735 77 216 0.0 0.0 0.00 0.00 0.00 92 1018.2
20260903041231 78 215 0.0 0.0 0.00 0.00 0.00 91 1018.0
20260903040725 78 215 0.0 0.0 0.00 0.00 0.00 90 1018.0
20260903040220 78 215 0.0 0.0 0.00 0.00 0.00 90 1018.3
20260903035715 78 215 0.0 0.0 0.00 0.00 0.00 89 1018.2
20260903035206 78 215 0.0 0.0 0.00 0.00 0.00 89 1018.2
20260903034705 79 215 0.0 0.0 0.00 0.00 0.00 89 1018.1
20260903034200 79 215 0.0 0.0 0.00 0.00 0.00 88 1018.2
20260903033656 79 215 0.0 0.0 0.00 0.00 0.00 87 1018.4
20260903033150 79 215 0.0 0.0 0.00 0.00 0.00 87 1018.3
20260903032645 79 215 0.0 0.0 0.00 0.00 0.00 87 1018.5
20260903032140 79 215 0.0 0.0 0.00 0.00 0.00 88 1018.4
20260903031636 79 215 0.0 0.0 0.00 0.00 0.00 87 1018.4
20260903031131 79 215 0.0 0.0 0.00 0.00 0.00 88 1018.5
20260903030626 79 215 0.0 0.0 0.00 0.00 0.00 88 1018.5
20260903030122 79 208 0.0 0.0 0.00 0.00 0.00 88 1018.6
20260903025617 79 215 0.0 0.0 0.00 0.00 0.00 89 1018.5
20260903025113 79 215 0.0 0.0 0.00 0.00 0.00 89 1018.6
20260903024613 79 215 0.0 0.0 0.00 0.00 0.00 89 1018.5
20260903024106 79 215 0.0 0.0 0.00 0.00 0.00 88 1018.6
20260903023602 80 215 0.0 0.0 0.00 0.00 0.00 88 1018.7
20260903023051 80 215 0.0 0.0 0.00 0.00 0.00 88 1018.7
20260903022551 80 209 0.0 0.0 0.00 0.00 0.00 88 1018.6
20260903022050 80 216 0.0 0.0 0.00 0.00 0.00 87 1018.5
20260903021544 80 216 0.0 0.0 0.00 0.00 0.00 86 1018.4
20260903021039 80 216 0.0 0.0 0.00 0.00 0.00 86 1018.4
20260903020535 80 216 0.0 0.0 0.00 0.00 0.00 86 1018.4
20260903020035 80 216 0.0 0.0 0.00 0.00 0.00 86 1018.4
20260903015530 80 216 0.0 0.0 0.00 0.00 0.00 85 1018.5
20260903015026 81 216 0.0 0.0 0.00 0.00 0.00 85 1018.4
20260903014525 81 216 0.0 0.0 0.00 0.00 0.00 85 1018.5
20260903014021 81 216 0.0 0.0 0.00 0.00 0.00 85 1018.3
20260903013520 81 216 0.0 0.0 0.00 0.00 0.00 84 1018.2
20260903013014 81 216 0.0 0.0 0.00 0.00 0.00 83 1018.2
20260903012508 82 216 0.0 0.0 0.00 0.00 0.00 83 1018.0
20260903012007 82 216 0.0 0.0 0.00 0.00 0.00 83 1017.9
20260903011502 82 216 0.0 0.0 0.00 0.00 0.00 83 1018.2
20260903010956 82 216 0.0 0.0 0.00 0.00 0.00 82 1018.0
20260903010451 82 216 0.0 0.0 0.00 0.00 0.00 83 1017.7
20260903005949 82 207 0.0 0.0 0.00 0.00 0.00 83 1017.6